Вернуться в каталог

STARLINK-3356

АктивенСвязьVLEO
NORAD 51133·PAYLOAD·🇺🇸 United States

Запущен Jan 19, 2022 с Cape Canaveral Space Force Station

Loading…

Ближайшие Пролёты (ближайшие 24 часа)

TLE

СвежийSource: CelesTrak SupGP

Эпоха: Sep 14, 2026, 20:33 UTC

1 51133C 22005AF  26257.85673611  .00115860  00000+0  18863-2 0  2576
2 51133  53.1583 153.8558 0001597  89.6045 311.1738 15.51984391    10

Отслеживайте STARLINK-3356 в реальном времени с AllMySat

Download on the App Store